TimeEST,TemperatureF,Dew PointF,Humidity,Sea Level PressureIn,VisibilityMPH,Wind Direction,Wind SpeedMPH,Gust SpeedMPH,PrecipitationIn,Events,Conditions,WindDirDegrees,DateUTC
12:52 AM,30.9,27.0,85,30.37,10.0,Calm,Calm,-,N/A,,Clear,0,2013-02-10 05:52:00
1:52 AM,28.0,26.1,92,30.39,10.0,Calm,Calm,-,N/A,,Clear,0,2013-02-10 06:52:00
2:52 AM,28.9,25.0,85,30.39,10.0,Calm,Calm,-,N/A,,Clear,0,2013-02-10 07:52:00
3:52 AM,27.0,24.1,89,30.39,10.0,Calm,Calm,-,N/A,,Clear,0,2013-02-10 08:52:00
4:52 AM,27.0,23.0,85,30.39,10.0,Calm,Calm,-,N/A,,Clear,0,2013-02-10 09:52:00
5:52 AM,27.0,25.0,92,30.40,10.0,ENE,3.5,-,N/A,,Clear,60,2013-02-10 10:52:00
6:52 AM,30.9,25.0,79,30.43,10.0,Calm,Calm,-,N/A,,Clear,0,2013-02-10 11:52:00
7:52 AM,33.1,27.0,78,30.45,10.0,Calm,Calm,-,N/A,,Clear,0,2013-02-10 12:52:00
8:52 AM,37.0,27.0,67,30.48,10.0,ENE,3.5,-,N/A,,Clear,60,2013-02-10 13:52:00
9:52 AM,41.0,25.0,53,30.49,10.0,ESE,5.8,-,N/A,,Clear,110,2013-02-10 14:52:00
10:52 AM,46.9,25.0,42,30.48,10.0,Variable,4.6,-,N/A,,Clear,0,2013-02-10 15:52:00
11:52 AM,51.1,21.9,32,30.46,10.0,SE,6.9,-,N/A,,Clear,130,2013-02-10 16:52:00
12:52 PM,53.1,26.1,35,30.43,10.0,ESE,5.8,-,N/A,,Clear,120,2013-02-10 17:52:00
1:52 PM,55.9,32.0,40,30.39,10.0,SSE,9.2,-,N/A,,Clear,150,2013-02-10 18:52:00
2:52 PM,57.9,34.0,41,30.34,10.0,SSE,6.9,-,N/A,,Clear,160,2013-02-10 19:52:00
3:52 PM,57.0,36.0,45,30.32,10.0,SSE,6.9,-,N/A,,Partly Cloudy,160,2013-02-10 20:52:00
4:52 PM,57.0,39.9,53,30.32,10.0,SSE,8.1,-,N/A,,Mostly Cloudy,150,2013-02-10 21:52:00
5:52 PM,55.9,41.0,57,30.30,10.0,SE,5.8,-,N/A,,Overcast,130,2013-02-10 22:52:00
6:52 PM,55.0,39.9,57,30.28,10.0,SE,6.9,-,N/A,,Overcast,130,2013-02-10 23:52:00
7:52 PM,55.0,41.0,59,30.28,10.0,SE,4.6,-,N/A,,Overcast,130,2013-02-11 00:52:00
8:52 PM,54.0,44.1,69,30.28,10.0,SE,11.5,-,N/A,,Overcast,130,2013-02-11 01:52:00
9:52 PM,52.0,44.1,74,30.30,10.0,SE,5.8,-,N/A,,Overcast,130,2013-02-11 02:52:00
10:52 PM,51.1,45.0,80,30.31,10.0,ESE,5.8,-,N/A,,Overcast,110,2013-02-11 03:52:00
11:52 PM,48.9,46.9,93,30.23,8.0,SSE,13.8,-,0.03,Rain,Light Rain,160,2013-02-11 04:52:00